Weather History for NW Arkansas Airport, AR

Change the Weather History Date:

Wednesday, July 24, 2013

  Actual Average Record
Temperature  
Mean Temperature 75 °F -  
Max Temperature 84 °F - - ()
Min Temperature 66 °F - - ()
Cooling Degree Days 10    
Growing Degree Days 25 (Base 50)    
Moisture  
Dew Point 68 °F    
Average Humidity 81    
Maximum Humidity 100    
Minimum Humidity 55    
Precipitation  
Precipitation 0.48 in - - ()
Sea Level Pressure  
Sea Level Pressure 29.97 in    
Wind  
Wind Speed 10 mph (North)    
Max Wind Speed 26 mph    
Max Gust Speed 34 mph    
Visibility 9 miles    
Events Rain , Thunderstorm    
T = Trace of Precipitation, MM = Missing Value Source: NWS Daily Summary

Daily Weather History Graph

Daily Weather History Graph

Search for Another Location

Airport:

Trip Planner

Search our weather history database for the weather conditions in past years. The results will help you decide how hot, cold, wet, or windy it might be!

Date:

Astronomy

Jul. 24, 2013 Rise Set
Actual Time 6:17 AM CDT 8:29 PM CDT
Civil Twilight 5:48 AM CDT 8:57 PM CDT
Nautical Twilight 5:13 AM CDT 9:33 PM CDT
Astronomical Twilight 4:35 AM CDT 10:11 PM CDT
Moon 9:42 PM CDT (7/24) 8:33 AM CDT (7/24)
Length of Visible Light 15h 09m
Length of Day
14h 11m
Waning Gibbous, 94% of the Moon is Illuminated
Jul 24
Waning Gibbous
Jul 29
Last Quarter
Aug 6
New
Aug 14
First Quarter
Aug 20
Full

Hourly Weather History & Observations

Time (CDT) Temp. Heat Index Dew Point Humidity Pressure Visibility Wind Dir Wind Speed Gust Speed Precip Events Conditions
12:53 AM 72.0 °F - 70.0 °F 93% 29.89 in 8.0 mi South 13.8 mph - 0.07 in Rain , Thunderstorm Light Rain
1:01 AM 71.6 °F - 69.8 °F 94% 29.94 in 10.0 mi South 9.2 mph - 0.00 in Rain Light Rain
1:53 AM 70.0 °F - 70.0 °F 100% 29.94 in 8.0 mi WNW 13.8 mph 23.0 mph 0.09 in Rain Rain
2:00 AM 69.8 °F - 69.8 °F 100% 29.99 in 7.0 mi WNW 11.5 mph - 0.02 in Rain , Thunderstorm Rain
2:28 AM 69.8 °F - 69.8 °F 100% 30.00 in 4.0 mi SW 9.2 mph - 0.08 in Rain Rain
2:53 AM 70.0 °F - 70.0 °F 100% 29.96 in 6.0 mi SW 17.3 mph - 0.14 in Rain Rain
3:53 AM 70.0 °F - 70.0 °F 100% 29.89 in 6.0 mi South 26.5 mph 34.5 mph 0.15 in Rain Rain
4:53 AM 70.0 °F - 69.1 °F 97% 29.87 in 10.0 mi SW 3.5 mph - 0.03 in   Clear
5:53 AM 68.0 °F - 66.0 °F 93% 29.86 in 10.0 mi Calm Calm - N/A   Clear
6:53 AM 66.9 °F - 66.0 °F 97% 29.91 in 10.0 mi WNW 5.8 mph - N/A   Clear
7:53 AM 68.0 °F - 66.0 °F 93% 29.93 in 10.0 mi NNW 5.8 mph - N/A   Clear
8:53 AM 70.0 °F - 68.0 °F 93% 29.96 in 10.0 mi North 8.1 mph - N/A   Clear
9:01 AM 69.8 °F - 68.0 °F 94% 30.00 in 10.0 mi North 8.1 mph - N/A   Scattered Clouds
9:10 AM 69.8 °F - 68.0 °F 94% 30.01 in 10.0 mi North 12.7 mph - N/A   Mostly Cloudy
9:38 AM 71.6 °F - 69.8 °F 94% 30.02 in 10.0 mi North 8.1 mph - N/A   Overcast
9:53 AM 73.0 °F - 69.1 °F 87% 29.98 in 10.0 mi NNE 10.4 mph - N/A   Mostly Cloudy
10:25 AM 75.2 °F - 69.8 °F 83% 30.03 in 10.0 mi North 12.7 mph - N/A   Scattered Clouds
10:53 AM 77.0 °F - 66.9 °F 71% 30.00 in 10.0 mi North 10.4 mph - N/A   Partly Cloudy
11:31 AM 78.8 °F - 66.2 °F 65% 30.04 in 10.0 mi North 10.4 mph - N/A   Mostly Cloudy
11:53 AM 79.0 °F - 66.0 °F 64% 29.99 in 10.0 mi North 11.5 mph - N/A   Mostly Cloudy
12:01 PM 78.8 °F - 66.2 °F 65% 30.03 in 10.0 mi NNE 13.8 mph - N/A   Scattered Clouds
12:53 PM 81.0 °F 83.0 °F 66.0 °F 60% 29.99 in 10.0 mi NE 5.8 mph - N/A   Scattered Clouds
1:53 PM 82.9 °F 85.0 °F 66.0 °F 56% 29.98 in 10.0 mi North 8.1 mph - N/A   Partly Cloudy
2:53 PM 84.9 °F 87.6 °F 66.9 °F 55% 29.97 in 10.0 mi North 8.1 mph - N/A   Overcast
3:53 PM 82.9 °F 85.4 °F 66.9 °F 58% 29.97 in 10.0 mi Variable 6.9 mph - N/A   Overcast
4:53 PM 84.0 °F 87.0 °F 68.0 °F 58% 29.96 in 10.0 mi NE 6.9 mph - N/A   Overcast
5:53 PM 84.9 °F 88.2 °F 68.0 °F 57% 29.95 in 10.0 mi NE 3.5 mph - N/A   Clear
6:53 PM 82.9 °F 85.8 °F 68.0 °F 60% 29.94 in 10.0 mi NNE 8.1 mph - N/A   Partly Cloudy
7:53 PM 81.0 °F 84.1 °F 69.1 °F 67% 29.95 in 10.0 mi North 5.8 mph - N/A   Clear
8:53 PM 75.9 °F - 69.1 °F 79% 29.97 in 10.0 mi North 4.6 mph - N/A   Partly Cloudy
9:53 PM 75.0 °F - 68.0 °F 79% 29.98 in 10.0 mi NNE 4.6 mph - N/A   Partly Cloudy
10:53 PM 73.0 °F - 66.9 °F 81% 29.99 in 10.0 mi North 3.5 mph - N/A   Clear
11:53 PM 72.0 °F - 66.9 °F 84% 30.01 in 10.0 mi Calm Calm - N/A   Clear